Theta_e
306 297 295 296 300 302 305 306 307 309 307 308 307 305 304 304 304 306 306 301 305 302 301 302 304 304 305 305 307 310 310 305 305 306 307 307 306 306 306 306 308 309 311 318 320 323 326 328 330 331 332 332 332 333 332 332 333 333 332 332 331 332 333 332 332 332 332 331 332 332 331 330 332 333 333 333 334 334 335 334 334 333 334 336 335 335
305 297 297 301 304 305 305 307 308 307 306 306 305 304 303 304 302 307 304 300 301 300 301 303 302 302 304 306 307 309 307 306 305 305 306 308 308 308 308 307 308 309 313 318 319 321 325 326 329 330 330 329 330 331 332 331 332 332 332 331 331 332 332 331 330 331 331 332 332 331 331 331 332 332 332 332 333 334 335 335 334 333 334 335 337 335
298 297 301 304 307 308 307 307 308 305 303 305 304 303 302 303 306 301 302 299 299 299 299 303 300 300 301 303 305 305 305 306 308 306 306 308 310 311 309 308 309 310 311 313 313 315 319 324 327 328 329 330 330 331 330 331 331 331 331 331 332 332 332 331 330 330 330 332 333 333 332 332 332 334 335 334 334 334 334 334 335 334 333 334 336 337
293 299 305 307 308 307 306 306 306 304 304 304 303 302 300 305 302 298 300 300 298 300 299 300 297 298 301 304 305 307 306 305 307 307 306 307 309 310 310 308 308 308 310 310 310 310 312 318 322 325 327 328 329 329 329 330 330 331 331 331 332 332 332 332 331 329 332 332 334 334 334 335 334 333 334 335 335 334 333 332 334 334 334 334 335 336
298 303 308 308 307 306 304 305 303 302 301 304 304 303 302 302 302 302 299 300 298 299 298 298 298 299 302 302 304 308 309 307 306 306 306 306 307 309 311 311 310 308 309 311 311 311 311 314 318 321 325 327 328 328 329 329 329 330 330 332 332 332 332 332 331 331 332 332 332 333 333 334 334 334 333 333 332 333 332 332 333 333 334 334 335 335
301 306 308 306 305 304 303 300 302 303 301 302 304 304 303 304 302 299 298 297 296 297 298 298 293 295 303 304 304 307 309 307 306 305 305 304 305 307 305 306 309 312 312 310 310 311 312 312 315 319 322 325 327 327 329 330 330 330 330 332 333 333 332 332 333 332 332 330 330 329 329 327 328 328 329 328 329 330 331 331 333 334 334 334 334 335
303 307 306 303 303 303 303 302 304 304 301 300 300 305 304 303 303 300 298 298 294 292 297 300 292 291 302 301 303 305 306 307 308 305 305 305 305 305 305 306 306 306 307 310 310 311 311 312 312 315 318 322 324 326 329 330 330 331 331 332 332 332 332 334 334 334 331 331 330 330 328 329 328 327 329 331 332 332 332 333 333 333 334 334 333 334
298 300 303 304 303 302 300 299 303 303 301 299 303 304 303 302 300 299 299 299 298 301 298 295 296 290 291 298 304 306 303 302 303 304 304 305 306 305 306 306 307 307 308 310 310 310 310 311 312 311 314 318 321 324 327 329 330 330 330 331 331 332 331 333 334 334 333 331 331 330 330 329 329 328 329 330 332 333 332 331 332 333 333 334 334 334
299 299 302 301 302 300 299 302 304 304 301 300 300 304 302 301 300 300 299 298 298 294 291 294 296 290 290 296 302 302 300 301 301 303 304 304 305 305 306 306 307 308 309 310 312 311 310 310 310 311 312 315 317 321 323 326 328 330 330 331 331 331 331 332 333 333 333 331 331 330 330 329 329 330 330 331 331 330 332 331 332 332 332 333 333 333
300 301 302 303 301 299 303 304 304 303 300 298 302 303 302 302 300 299 297 297 296 291 287 294 295 289 291 298 301 300 298 299 301 304 305 306 306 306 306 307 307 308 310 311 310 311 312 312 312 312 311 311 314 317 321 323 325 327 329 329 329 330 331 332 332 332 333 333 330 330 330 329 329 329 329 330 329 329 330 329 330 331 331 331 331 332
297 301 305 304 301 304 304 303 304 304 302 302 301 299 298 298 298 297 297 294 291 286 288 295 296 293 287 297 299 298 297 300 302 304 305 307 308 308 308 308 309 307 309 311 310 308 308 309 310 311 309 309 311 316 317 319 321 323 324 326 327 329 330 331 331 332 332 332 331 329 329 329 329 329 328 327 327 328 328 327 327 329 330 331 330 331
298 299 300 302 301 305 302 298 302 303 301 301 298 296 296 293 296 294 291 293 286 285 292 295 296 295 286 293 300 304 303 302 303 303 304 305 306 307 308 308 309 309 308 308 307 307 308 307 307 306 306 307 307 309 309 313 315 317 319 321 323 325 327 329 330 331 331 331 331 330 329 329 329 329 328 327 326 328 328 328 327 328 329 329 329 329
293 295 300 298 300 302 301 298 297 300 300 300 298 296 290 287 288 285 289 284 285 286 288 291 294 291 289 296 300 302 301 302 302 303 304 304 304 306 308 308 307 307 306 306 307 309 309 308 308 306 306 306 306 307 307 308 311 314 316 318 319 320 323 325 328 329 329 330 330 330 329 328 328 329 329 328 327 328 328 328 327 326 326 327 327 327
291 297 295 297 298 301 303 295 292 292 296 297 295 293 289 286 284 282 286 288 288 289 290 290 293 288 294 297 301 300 303 304 303 304 304 304 304 305 306 306 305 307 308 309 310 311 311 311 311 310 310 309 309 308 308 308 308 311 313 316 317 318 320 323 324 326 327 328 329 330 329 328 327 327 328 328 327 327 327 328 327 326 326 325 326 327
285 286 292 295 292 300 301 301 298 295 295 296 300 297 292 291 286 282 286 283 285 288 287 292 288 287 289 295 297 300 302 304 305 304 306 306 306 306 306 306 306 307 307 310 310 311 310 311 310 311 310 310 310 310 309 309 308 309 309 311 313 315 317 320 322 324 325 326 327 326 327 327 327 326 326 326 327 327 327 326 326 325 326 326 327 327
291 290 295 299 300 300 298 304 302 299 296 298 299 301 294 291 296 288 288 288 287 286 285 285 288 294 296 300 301 301 301 301 302 303 303 303 303 303 304 305 305 305 306 309 310 310 309 309 309 309 309 310 310 309 309 308 308 308 309 310 312 313 316 318 320 323 324 324 325 325 325 326 326 325 326 326 326 327 327 327 326 326 326 327 327 328
293 289 295 296 297 298 300 302 300 302 288 295 296 290 294 298 295 288 285 288 286 287 286 290 288 293 298 299 301 301 300 300 301 301 302 302 302 303 304 305 305 306 308 310 311 310 310 309 309 309 309 309 309 309 309 309 309 308 309 310 310 312 314 316 318 320 322 323 323 323 324 325 325 325 325 325 326 327 328 328 327 326 326 327 327 328
291 287 291 294 291 298 298 302 302 303 302 297 290 295 300 300 297 291 286 285 285 284 286 289 287 290 291 288 301 299 297 299 300 300 301 301 302 302 304 306 307 308 310 311 310 309 308 308 308 309 309 310 310 310 310 310 310 309 309 310 310 311 313 315 317 319 320 321 322 322 323 324 324 324 325 325 325 327 327 327 328 327 326 326 327 327
299 284 288 292 295 295 298 301 298 300 299 297 294 303 293 287 286 291 288 282 281 282 285 288 288 289 292 293 295 296 297 298 300 302 302 301 302 303 304 305 307 309 311 309 307 307 307 306 306 307 308 309 309 310 311 310 309 308 308 310 311 312 313 315 318 319 320 321 322 322 322 322 323 324 324 325 326 326 326 327 327 326 326 326 327 326
301 288 287 293 293 293 295 296 287 292 296 296 299 297 301 295 291 287 288 288 288 284 284 285 286 286 294 295 298 298 298 299 300 301 301 303 303 302 303 305 307 309 310 310 308 307 307 307 308 308 309 310 309 308 308 308 308 308 308 307 308 310 312 314 316 317 318 319 320 320 321 322 322 323 324 325 325 325 325 326 326 326 325 325 325 325
296 299 285 288 294 293 287 291 290 293 289 290 292 292 294 293 296 294 294 289 287 286 286 286 284 289 297 299 299 299 301 301 301 301 302 303 304 305 305 306 307 309 310 308 307 305 306 306 307 308 309 309 306 305 306 307 308 309 308 308 308 307 308 308 310 313 315 317 317 317 318 318 320 321 322 323 324 324 325 325 324 324 324 323 321 321
294 295 286 286 286 287 290 295 297 297 295 292 292 291 293 290 287 285 284 294 287 286 285 285 283 290 299 300 300 300 302 302 302 302 303 305 304 303 304 305 307 307 306 306 306 305 305 305 307 308 308 308 306 305 304 306 307 307 308 308 308 308 309 308 308 308 310 312 314 315 315 316 317 319 321 321 322 322 322 322 322 321 319 319 318 317
301 297 288 285 286 289 293 292 295 292 299 296 295 293 296 294 293 288 284 286 287 287 286 286 284 287 300 300 301 301 302 302 303 303 304 303 303 303 303 305 306 306 305 306 305 304 305 306 307 307 307 308 307 308 307 306 307 308 308 308 308 308 309 310 310 310 310 310 310 311 313 314 315 316 318 318 318 318 319 318 317 318 317 317 314 313
296 289 287 287 291 292 293 293 295 295 297 295 295 296 295 292 293 291 290 290 287 287 285 286 283 289 297 299 300 301 302 299 298 300 301 301 301 302 303 305 304 306 306 305 305 306 306 306 307 304 304 305 305 305 307 308 308 309 309 309 308 307 308 308 308 309 309 309 310 310 310 311 312 313 313 313 315 315 315 315 315 314 315 314 312 311
293 291 290 283 282 285 288 291 291 294 294 292 292 294 296 297 296 295 291 290 287 288 288 286 282 289 298 298 298 299 299 298 297 298 299 300 302 304 303 304 304 305 306 305 306 305 305 305 304 305 306 307 307 307 307 307 307 308 308 308 307 307 307 307 308 307 308 308 308 308 308 308 309 310 310 309 309 310 310 309 309 308 310 309 308 309
294 292 289 282 278 277 277 279 282 284 287 291 293 295 295 295 294 289 286 288 285 289 289 287 287 294 295 296 296 297 297 296 298 299 298 301 301 302 303 305 304 305 305 306 308 307 306 306 307 307 307 308 309 309 309 307 307 307 308 308 306 306 306 306 306 306 306 306 305 305 305 305 306 306 307 308 308 308 307 305 305 305 305 306 308 306
292 294 293 291 286 284 286 289 295 294 290 286 290 293 293 295 295 293 291 288 285 289 287 290 291 293 290 294 295 297 297 297 298 298 298 299 300 302 303 304 305 307 306 305 307 309 308 307 306 307 308 309 309 308 308 307 306 306 307 307 306 305 306 306 306 305 304 304 304 304 304 305 305 306 306 306 306 306 304 303 301 303 304 303 304 303
291 290 293 295 293 293 295 294 295 294 290 291 290 290 294 293 293 291 288 286 293 289 285 291 293 290 292 294 295 296 298 298 299 300 300 301 302 304 305 305 300 302 303 304 303 304 305 307 308 309 309 308 308 307 306 307 307 307 306 306 306 305 304 305 305 305 304 304 304 304 304 305 306 305 305 304 303 302 300 300 299 300 300 297 300 300
293 289 294 295 294 297 296 296 296 294 293 292 292 292 291 293 292 288 289 293 294 288 287 293 295 292 294 295 296 298 299 299 299 300 301 301 301 302 302 302 302 302 303 304 304 305 306 309 311 312 310 309 307 306 305 305 304 305 306 306 305 304 304 304 304 304 304 304 303 303 304 305 303 302 300 298 299 298 298 297 296 295 294 294 295 297
295 291 294 294 293 295 294 295 296 294 293 292 292 292 293 293 292 292 292 293 293 292 294 296 296 295 297 298 297 299 301 301 300 301 298 299 299 300 301 301 302 302 302 303 304 305 307 308 310 313 311 308 306 305 305 305 304 303 304 304 304 304 304 304 304 304 304 303 303 304 304 302 300 299 298 298 297 295 293 293 293 293 293 294 294 293
294 290 295 292 290 289 291 294 296 295 294 291 292 293 293 293 293 293 293 293 294 293 294 294 294 294 300 302 301 301 303 304 300 297 298 299 301 301 301 302 302 302 303 304 304 306 307 309 310 310 310 309 307 305 305 305 305 305 304 304 303 303 303 304 303 304 304 304 304 303 302 299 297 294 295 297 294 293 292 292 292 292 292 292 292 292
294 291 296 292 288 288 289 289 292 294 293 289 290 292 292 291 290 292 291 294 293 291 293 293 291 292 298 302 302 302 301 300 298 298 299 300 300 301 301 302 302 303 304 304 304 305 306 307 307 307 306 309 309 308 306 305 306 305 303 304 303 303 303 303 303 303 303 304 303 302 300 298 296 294 294 294 293 292 292 292 291 291 291 291 291 291
292 291 290 289 287 287 289 290 289 288 288 286 287 291 293 293 294 295 295 296 296 296 292 288 291 297 300 301 299 299 300 300 299 300 300 302 303 302 302 302 302 303 304 305 305 305 305 305 305 306 306 308 308 308 307 307 305 304 304 303 304 303 301 300 301 302 303 302 300 298 298 296 294 294 294 293 294 293 292 291 290 291 290 290 290 290
292 292 291 292 286 287 286 287 288 285 280 282 293 297 296 293 293 292 292 294 296 297 295 297 297 300 300 300 299 298 299 299 301 302 304 304 304 304 302 302 303 304 305 305 306 305 306 306 306 305 306 307 309 307 307 306 305 305 305 304 302 301 300 299 300 301 299 298 297 297 296 295 294 294 294 292 292 292 291 291 291 291 291 291 290 290
289 290 290 289 288 282 284 286 282 278 280 292 297 298 298 297 296 295 295 296 297 298 298 298 299 299 300 300 300 301 301 301 302 303 303 304 305 303 303 302 302 303 303 304 305 305 305 306 305 305 304 304 304 305 304 303 303 303 301 301 300 300 299 299 299 300 299 296 297 297 295 295 294 295 293 292 291 290 291 291 291 289 289 290 290 290
289 289 289 288 287 285 283 283 277 279 289 292 293 296 298 298 297 296 294 296 297 297 298 297 298 300 301 300 301 302 302 302 302 302 303 303 303 303 304 305 305 303 302 303 304 305 305 304 304 303 303 305 304 303 302 302 302 300 299 299 299 298 298 298 298 298 297 297 298 297 297 295 294 294 294 292 291 289 289 289 289 289 290 290 290 290
294 292 290 286 287 281 282 283 284 290 287 289 291 291 294 291 292 291 287 292 297 299 299 297 298 299 300 300 301 300 299 299 300 301 303 303 304 304 304 304 304 305 305 306 305 305 305 306 304 303 304 303 302 302 301 303 299 299 298 297 298 297 297 296 296 295 296 295 296 296 296 295 294 294 293 291 289 288 289 289 289 289 289 289 289 289
297 290 291 287 284 287 283 281 283 284 282 287 293 297 299 299 299 298 294 291 299 299 300 299 298 299 299 300 298 298 299 295 294 296 301 303 304 305 304 305 305 305 305 306 306 304 304 303 302 302 302 300 300 301 301 299 298 298 297 296 296 296 295 295 295 295 295 295 296 296 296 296 295 294 291 289 288 289 289 289 289 288 288 289 288 288
292 292 290 288 285 285 283 281 281 280 284 293 296 298 300 300 300 299 291 287 297 300 300 300 299 299 300 299 297 297 295 290 292 296 301 302 302 302 302 304 304 304 304 305 304 302 300 300 298 298 299 298 297 299 299 297 296 297 296 296 295 295 295 294 294 294 294 294 296 296 296 295 294 293 290 289 289 289 288 288 288 288 288 289 288 288
288 288 287 285 284 285 284 283 282 286 286 293 297 299 299 301 301 295 283 284 297 300 301 300 299 299 300 300 298 297 294 291 293 298 302 303 302 302 301 302 302 302 302 301 301 301 300 297 296 295 295 296 297 298 296 296 296 294 296 295 296 294 295 295 295 295 295 296 296 296 296 292 290 290 289 289 288 288 289 288 288 287 287 288 288 288
284 285 286 283 285 285 285 285 288 289 295 298 299 299 300 302 297 287 283 291 300 303 302 302 300 301 301 299 298 295 297 299 301 302 302 302 301 301 301 301 301 302 301 299 299 295 298 297 296 296 295 296 297 296 295 295 295 294 295 295 294 293 295 296 296 295 295 295 295 295 295 294 290 289 289 289 289 288 288 289 288 287 287 287 288 288
284 285 285 286 284 284 285 285 285 290 297 299 299 300 301 295 286 286 296 302 303 300 302 303 302 302 301 299 299 299 300 302 301 302 300 301 301 302 301 300 299 298 298 297 295 295 297 296 295 295 295 296 296 295 294 294 294 294 295 294 294 295 296 295 296 295 295 295 294 292 291 290 290 289 288 288 288 288 288 288 287 287 287 288 287 286
285 284 282 283 286 287 286 284 284 281 292 299 298 297 298 292 292 299 299 296 302 302 302 301 302 302 302 300 300 300 301 301 301 301 301 300 300 301 301 298 297 297 296 294 294 294 295 294 294 294 294 293 293 293 293 292 291 292 291 292 292 294 294 294 294 293 293 293 291 289 288 288 288 288 288 287 287 287 287 287 286 286 286 286 286 285
291 285 284 286 289 283 284 282 283 291 295 299 298 292 295 300 301 303 302 293 298 302 302 302 300 302 302 301 300 300 300 300 300 301 298 297 298 299 298 297 296 296 295 294 294 293 293 294 294 293 293 292 292 291 291 290 289 290 290 291 293 292 292 292 291 291 289 288 288 287 287 287 287 287 287 287 287 287 287 286 286 286 286 286 286 286
291 288 290 286 291 288 286 290 294 292 297 300 301 304 301 303 301 299 302 302 299 298 301 301 302 301 301 301 301 300 299 300 300 300 298 297 298 297 296 295 295 295 294 294 293 292 292 294 292 292 291 291 290 291 289 289 289 288 288 291 291 288 289 288 287 287 287 286 286 286 287 287 287 287 287 287 287 287 286 285 285 285 285 286 285 285
295 295 296 291 291 295 297 297 297 292 293 298 301 303 302 302 303 296 301 300 300 302 299 300 301 301 301 301 300 299 299 299 299 299 298 297 296 295 295 294 294 294 293 292 291 289 291 292 290 290 289 288 288 289 288 289 288 287 288 290 288 288 287 286 286 286 285 286 286 285 285 285 285 286 286 286 287 287 287 286 285 285 284 285 285 285
294 295 293 290 293 291 286 296 296 296 296 296 299 299 299 302 301 297 295 300 300 298 297 299 302 299 299 300 300 299 299 299 298 298 298 297 295 294 294 293 293 293 292 291 290 288 289 289 289 288 286 285 285 286 286 287 288 288 288 287 287 286 286 286 286 285 285 285 285 284 284 285 285 285 285 285 286 287 286 286 286 286 285 284 285 285
289 296 292 291 292 290 290 295 297 299 298 298 297 297 296 296 298 299 297 295 294 294 295 296 294 294 295 296 298 298 298 298 297 297 297 296 296 295 294 294 292 291 291 290 288 287 288 288 288 287 287 286 286 285 285 285 286 285 285 286 285 285 285 285 285 285 285 284 285 285 284 285 281 283 285 284 285 286 286 286 286 286 285 285 285 285
293 295 288 292 290 293 296 296 297 298 298 297 297 298 299 300 298 298 295 293 292 292 292 292 292 293 293 295 294 295 295 296 296 296 296 295 295 294 294 294 292 291 289 287 286 286 288 288 288 287 287 287 286 285 284 285 285 284 284 284 284 285 285 285 284 284 283 284 284 284 284 285 284 285 285 284 284 285 285 285 285 285 285 285 286 286
293 289 293 292 289 289 290 293 296 291 291 296 297 297 295 296 298 297 294 294 294 293 293 292 291 290 290 290 291 293 294 295 294 294 294 294 294 294 294 293 292 289 287 287 286 287 287 287 287 287 286 285 285 284 284 284 283 282 283 283 284 285 285 284 284 283 283 283 284 283 283 284 283 283 283 283 283 283 283 281 282 283 284 285 285 284
293 292 293 290 289 289 295 297 299 299 298 299 299 299 296 297 296 295 295 295 296 295 292 291 290 288 287 288 288 291 293 294 293 293 293 292 293 293 293 292 290 288 287 286 285 286 286 287 286 286 285 284 283 283 283 283 281 281 280 281 282 284 284 284 285 284 283 283 283 283 283 283 283 282 282 282 282 282 282 282 282 282 281 281 281 282
Wind_Speed
9 10 11 13 12 13 15 17 15 8 4 10 11 10 11 8 7 7 7 6 6 6 12 14 16 17 16 13 14 16 13 11 13 14 12 10 10 10 10 10 10 11 11 7 8 8 9 11 11 11 10 11 12 13 14 15 16 16 14 13 15 14 15 14 13 12 12 12 11 10 11 10 11 9 9 9 10 9 8 7 9 10 8 8 9 9
11 11 14 13 15 18 16 15 15 4 7 7 8 9 8 9 8 5 7 7 4 7 9 10 13 17 16 14 13 13 14 18 14 14 14 14 12 11 12 13 12 11 7 6 6 8 9 10 11 11 10 12 14 14 15 16 17 16 16 16 14 13 15 15 15 14 14 13 12 11 11 11 11 10 10 10 10 10 9 8 9 10 10 10 9 9
13 18 15 16 13 15 14 14 12 8 8 7 6 6 7 8 7 5 3 6 5 5 9 10 11 13 15 14 14 15 16 15 14 14 14 15 16 14 13 13 12 10 10 10 11 10 11 12 13 12 12 12 15 14 16 16 15 16 15 15 14 13 14 15 16 14 14 14 14 14 12 13 10 10 10 11 12 9 11 10 10 9 11 11 11 11
11 14 18 17 14 16 15 15 12 10 7 7 7 8 9 6 7 6 10 9 6 6 4 5 9 12 15 15 17 16 16 16 17 16 15 14 16 16 15 12 11 12 11 11 11 12 12 13 13 12 12 13 13 13 14 14 16 14 14 15 15 15 14 13 15 13 14 14 13 14 13 12 12 10 10 12 11 11 12 11 10 9 11 12 11 12
11 9 16 18 18 18 17 16 13 10 9 9 9 9 7 7 6 6 4 5 3 7 5 9 11 13 15 16 15 15 18 18 18 16 16 15 13 12 9 9 10 12 11 10 11 11 11 12 14 15 14 12 12 14 14 14 14 12 17 17 17 15 15 14 14 14 13 12 13 13 12 11 12 11 11 11 11 11 12 11 11 13 11 12 12 12
12 12 16 18 15 16 14 13 15 10 10 9 11 10 8 5 6 5 6 3 4 7 11 8 6 9 12 17 18 12 11 17 17 18 19 17 14 10 12 12 9 7 7 9 10 10 10 11 11 12 12 13 12 13 14 14 14 14 13 14 15 13 13 14 15 15 14 13 13 14 13 13 13 14 13 15 15 13 13 13 10 14 14 13 13 13
11 14 20 19 19 15 14 12 13 11 10 9 8 12 10 7 5 5 6 3 5 7 4 7 9 6 2 7 9 9 11 13 11 17 19 16 14 13 12 11 11 12 11 10 10 9 8 9 10 11 12 13 13 13 10 11 13 14 12 13 14 13 12 12 13 15 13 13 13 15 15 13 14 15 13 12 11 13 12 10 12 13 13 14 14 14
8 12 15 16 16 15 13 12 12 14 8 10 7 11 13 11 6 6 6 6 7 4 4 7 7 8 8 14 11 12 11 13 14 16 16 15 15 16 15 14 13 13 13 10 12 12 11 11 11 13 13 12 13 11 10 11 12 14 15 13 13 12 11 11 11 14 14 13 13 14 14 13 13 14 13 13 13 13 12 13 14 13 13 14 14 12
17 15 20 18 16 12 14 12 12 15 10 1 2 6 9 8 6 5 4 5 4 5 6 7 7 5 9 12 8 6 10 14 17 15 14 15 16 17 17 16 15 15 14 12 9 11 11 11 12 11 10 11 10 9 10 10 10 11 12 13 13 13 13 12 13 12 15 14 13 13 12 13 12 12 11 9 9 10 10 14 12 13 12 11 12 12
5 13 16 16 13 13 10 11 14 16 11 4 4 6 4 4 3 4 4 4 4 4 11 8 9 7 11 7 9 8 11 15 13 11 13 14 16 15 15 16 15 13 10 9 10 8 7 7 7 8 8 8 8 7 7 7 7 8 9 12 13 14 12 11 13 14 15 15 12 13 13 14 12 10 10 10 11 12 11 14 15 12 11 11 9 11
4 5 5 11 13 11 10 5 11 14 3 12 10 10 8 5 3 2 2 2 3 10 11 8 11 10 8 6 11 8 8 9 7 8 9 10 11 13 13 14 12 12 8 5 5 6 6 5 5 6 8 8 6 5 7 7 8 8 9 11 13 14 11 11 13 13 15 14 13 13 14 14 13 12 11 10 11 11 13 14 14 13 11 12 11 11
9 6 7 3 4 5 14 10 7 9 13 12 6 8 8 4 3 4 2 2 4 8 0 9 13 13 10 4 7 11 3 5 7 8 7 7 8 8 9 10 10 7 5 5 5 6 7 6 6 6 7 7 8 7 8 7 8 9 10 11 13 13 13 12 12 14 14 14 15 13 14 13 13 12 10 12 12 11 12 12 11 11 11 12 11 10
9 12 6 5 4 11 13 11 5 9 11 9 9 10 8 5 4 5 5 7 10 8 2 3 5 6 19 12 6 6 5 7 8 7 7 6 5 6 2 2 2 2 3 4 5 5 6 7 8 8 8 7 8 8 9 9 8 9 11 14 15 15 15 14 13 14 15 14 15 15 14 13 11 11 12 11 12 12 11 11 12 12 12 12 12 11
4 4 0 5 4 8 14 14 11 9 11 12 12 11 9 9 8 8 9 5 4 3 3 5 2 9 10 9 16 21 19 10 9 9 8 8 9 8 4 4 4 3 4 4 5 5 5 5 5 6 6 7 7 8 8 8 8 8 8 11 14 15 15 14 13 14 14 15 14 13 13 12 10 11 11 11 12 12 12 10 10 11 12 12 13 12
9 6 12 14 9 11 15 11 12 8 14 11 9 10 8 8 4 8 7 10 5 1 4 4 3 5 3 2 4 6 9 10 10 10 9 5 4 6 6 4 5 5 7 6 6 6 6 6 7 6 6 6 6 7 7 7 9 9 9 10 11 9 10 10 11 10 12 11 12 13 11 10 9 9 10 11 11 11 10 9 10 12 11 11 11 10
12 2 5 14 3 17 13 9 13 15 10 10 9 8 10 10 5 5 2 2 2 2 3 5 6 3 7 6 5 4 6 6 6 8 5 7 6 6 6 6 6 7 7 6 6 6 6 5 5 5 5 5 5 7 6 8 7 8 9 9 10 11 10 10 11 11 11 11 9 11 11 11 10 8 9 10 9 10 10 10 10 10 10 9 9 9
10 9 6 10 2 16 15 12 14 17 10 12 12 14 11 6 1 2 1 3 2 2 8 5 5 7 8 14 15 11 6 7 8 10 10 10 10 9 7 5 5 6 6 5 4 4 4 4 5 5 5 5 5 5 6 6 6 7 7 8 9 9 9 10 10 11 11 11 12 12 12 11 11 12 13 12 12 12 11 10 9 9 10 9 9 8
14 6 3 8 9 8 3 4 12 12 2 11 10 11 7 3 5 2 5 2 3 7 4 6 7 6 2 6 4 14 10 9 10 11 11 12 10 9 8 7 7 7 6 5 4 3 2 3 3 3 3 4 4 5 6 6 6 5 6 7 8 8 8 8 8 9 10 10 11 10 11 11 11 12 12 12 12 10 10 10 8 8 8 8 8 7
11 7 4 3 8 6 2 6 8 1 5 7 9 8 10 6 7 8 2 5 6 7 4 6 10 9 9 10 4 9 13 14 15 13 11 12 11 10 8 8 8 6 4 3 3 2 2 3 4 5 6 5 4 3 3 4 4 4 3 4 4 5 5 6 6 6 7 8 6 6 8 10 11 12 12 11 11 10 9 9 9 8 7 7 7 8
11 5 5 1 5 7 4 9 12 10 3 3 2 10 8 4 7 8 7 2 1 6 3 3 6 6 10 8 9 8 12 12 13 13 13 11 8 8 7 6 5 4 4 2 2 1 2 3 3 5 6 6 5 4 3 3 3 3 3 4 4 3 3 4 5 6 7 7 7 6 6 8 9 10 11 10 10 12 11 10 8 8 9 9 7 7
10 7 6 7 5 10 9 7 13 16 13 9 9 11 8 4 3 4 3 6 3 4 7 6 6 5 5 8 9 12 11 9 9 10 8 7 4 2 2 2 2 1 1 1 2 3 3 3 3 3 2 3 3 2 1 1 2 3 3 3 4 5 5 5 5 6 6 6 7 7 9 11 11 12 10 10 9 10 10 8 8 7 7 6 7 6
5 11 9 12 9 12 9 8 2 11 14 11 11 12 13 11 6 8 7 4 2 3 4 4 9 3 4 3 4 4 5 7 9 8 7 4 3 2 1 1 1 1 2 2 2 3 3 3 3 3 3 3 2 2 3 3 3 4 4 4 4 5 5 6 7 7 7 7 7 9 9 11 10 9 8 9 10 11 10 9 8 7 6 7 6 7
5 6 11 9 10 10 4 2 2 3 4 12 12 11 12 11 8 6 9 7 2 3 3 2 5 4 5 5 5 6 6 6 5 4 2 3 2 0 1 1 1 2 3 3 2 3 3 3 3 3 4 4 3 2 3 4 4 4 4 4 4 5 5 5 5 5 5 6 7 8 8 7 9 9 10 9 8 9 8 7 7 7 8 7 6 6
9 4 10 7 6 6 6 3 2 3 1 11 12 11 13 16 18 13 4 3 6 3 3 5 5 6 2 2 2 4 3 4 2 2 3 1 1 1 2 3 3 3 3 3 2 2 3 3 3 2 3 3 3 3 4 4 4 4 4 4 4 5 4 4 3 4 4 4 5 5 5 6 5 6 5 6 6 6 5 5 5 5 7 6 6 7
10 6 13 8 5 3 5 4 5 3 4 9 13 17 16 12 12 6 2 0 3 9 6 6 12 8 3 1 2 2 2 3 3 3 3 4 3 3 2 2 2 3 2 2 3 4 3 3 3 3 3 4 4 5 6 5 5 4 5 4 5 5 5 5 4 5 5 5 6 6 6 6 6 6 5 5 3 4 4 4 4 4 6 5 6 6
2 9 12 14 15 14 12 15 17 17 21 13 12 12 16 18 16 8 6 5 7 5 12 8 12 6 4 2 4 5 3 2 3 3 5 4 4 3 2 1 2 1 2 2 2 2 2 3 3 3 4 3 4 4 4 5 5 5 5 5 6 5 5 5 5 5 5 6 6 7 7 8 7 7 6 5 4 4 3 3 3 3 3 5 6 6
4 7 8 8 13 13 8 1 5 10 8 9 14 17 18 15 11 9 2 6 13 10 9 13 14 3 2 7 7 8 7 6 6 6 6 5 6 5 4 2 1 1 2 1 1 0 1 2 4 4 4 4 4 4 4 5 5 6 6 6 6 5 5 6 6 7 7 7 7 7 8 7 7 6 5 4 4 3 3 3 3 3 4 3 4 5
2 6 13 13 16 12 8 7 9 13 9 10 11 14 14 18 12 13 12 17 9 4 10 17 17 12 9 11 11 11 10 8 7 7 5 5 4 4 4 3 3 2 2 1 2 3 4 4 4 4 5 5 5 5 5 5 6 6 6 6 6 7 7 7 8 8 7 7 7 7 7 6 4 4 3 2 2 2 2 2 2 3 2 2 3 4
10 12 15 14 15 8 7 12 15 14 15 15 15 13 13 14 16 16 21 17 8 12 17 14 11 16 18 14 14 14 12 11 11 8 5 3 4 3 2 2 4 4 4 4 5 5 5 5 5 5 5 4 4 5 6 5 5 5 4 5 6 8 8 8 7 6 6 6 5 5 4 3 2 1 1 1 1 1 1 1 1 1 2 3 3 3
6 11 12 12 12 14 6 9 13 15 13 16 19 22 20 21 21 21 22 18 17 18 24 10 12 21 21 16 16 14 9 9 6 4 4 2 4 4 5 6 7 8 7 8 8 7 7 7 5 5 5 5 6 6 6 6 7 7 7 7 7 7 7 7 7 6 6 6 6 4 4 4 3 4 4 4 5 3 2 2 2 2 2 1 1 1
11 10 13 10 11 10 4 4 10 15 15 16 18 21 22 20 21 24 24 24 22 25 24 20 19 19 15 12 15 12 5 5 6 5 5 6 6 8 8 8 8 9 10 9 9 9 8 8 6 6 6 7 7 8 7 6 6 6 6 6 6 6 6 7 7 8 7 7 5 4 4 4 4 3 4 5 3 3 4 3 3 3 3 3 3 4
9 7 10 7 11 11 6 6 6 3 11 13 12 18 22 25 23 25 25 24 17 20 25 22 19 21 17 11 9 11 10 7 7 7 7 7 8 7 7 7 8 9 10 11 12 11 9 9 9 9 9 8 6 6 5 5 5 5 6 6 6 6 6 8 8 9 8 6 5 5 5 4 4 4 4 4 5 5 4 4 4 4 4 4 3 3
12 8 9 9 10 13 11 9 8 5 5 6 15 23 30 31 27 18 16 12 20 26 24 16 22 23 6 11 15 16 14 8 10 10 9 10 9 9 8 8 10 12 13 13 13 13 13 13 12 11 9 6 4 4 5 4 4 5 5 6 6 6 6 7 8 8 7 5 5 5 5 5 5 4 4 4 4 4 5 4 5 4 5 5 4 4
9 10 6 9 8 4 8 8 7 7 14 17 22 27 23 21 19 14 20 25 24 21 18 21 20 6 8 11 16 14 19 17 15 13 13 9 6 7 9 10 12 12 13 15 15 14 14 12 8 7 6 5 3 4 3 4 5 3 3 4 4 5 6 7 8 8 5 4 5 4 5 5 5 5 4 2 3 4 4 5 6 5 4 4 4 4
13 10 5 4 7 4 8 10 7 16 16 17 4 9 15 21 24 27 22 22 24 25 28 26 22 17 7 11 13 17 17 18 17 11 8 8 8 11 14 12 12 14 17 17 14 12 9 7 7 6 6 5 4 3 3 2 3 2 2 3 5 5 5 6 7 8 7 6 5 4 4 4 4 5 4 4 4 3 4 4 4 3 3 4 4 5
14 15 9 6 3 3 5 10 9 13 12 1 4 10 13 17 22 19 22 23 29 29 24 23 24 20 13 11 13 14 14 14 12 14 15 14 16 17 12 12 16 20 19 16 14 12 10 10 11 10 7 3 5 4 4 5 5 4 5 4 4 5 5 5 7 6 5 6 6 5 4 4 4 4 3 4 4 4 4 4 3 4 3 3 3 3
15 13 12 9 6 10 7 10 15 3 3 4 2 9 19 22 25 21 20 22 15 9 11 20 24 20 19 13 7 5 6 5 4 10 15 18 18 16 18 20 22 18 16 13 11 12 10 6 6 7 6 6 6 6 7 6 6 5 4 4 4 4 4 5 5 5 5 5 4 4 4 4 5 4 4 3 3 3 3 3 3 3 2 3 3 3
10 16 11 10 8 8 7 6 5 10 12 12 24 23 16 4 10 15 14 20 10 21 25 28 29 27 22 11 8 9 7 5 8 14 15 15 16 19 21 22 20 16 14 10 8 7 5 5 5 5 8 8 7 7 6 7 6 5 5 4 4 4 4 5 5 5 5 5 4 4 4 4 5 5 3 3 4 3 3 2 2 3 3 4 4 5
4 4 3 14 7 9 6 12 10 12 17 19 26 15 12 13 9 10 3 16 20 21 28 27 27 20 19 14 14 12 9 8 15 18 12 19 21 21 22 21 16 15 14 9 8 8 8 8 9 9 7 8 9 8 7 7 7 6 5 5 5 5 5 6 5 5 5 5 4 4 4 5 5 5 4 4 4 4 4 4 3 2 3 2 2 2
12 8 3 9 8 11 11 10 12 7 14 21 14 10 20 15 17 13 8 13 32 31 22 22 27 24 20 20 17 14 14 17 18 16 14 18 22 22 20 18 16 13 11 6 5 7 9 9 9 8 9 11 10 8 9 8 7 6 6 6 6 6 6 6 6 6 5 5 5 4 4 3 4 4 4 5 4 3 4 3 3 3 3 2 2 2
9 8 10 10 11 12 15 7 4 8 14 10 9 17 19 20 19 16 16 22 27 10 19 22 24 23 17 16 16 17 21 21 23 21 4 15 16 17 18 17 16 14 12 10 11 9 9 10 11 13 14 11 8 9 9 9 9 9 8 7 7 8 5 4 5 6 6 5 5 4 4 3 3 4 3 3 3 3 3 3 4 4 4 3 2 2
11 6 2 6 11 12 13 13 10 8 9 5 11 20 21 18 13 20 29 14 9 7 10 19 20 21 19 21 18 18 18 22 23 22 8 10 17 18 17 14 8 6 5 4 7 11 9 9 9 6 5 6 9 10 10 10 10 9 8 7 6 3 4 4 5 6 6 6 5 3 2 2 2 2 2 2 3 3 3 2 2 3 3 2 2 4
14 11 10 12 8 3 5 10 8 13 10 20 19 20 19 17 25 9 7 8 2 7 10 9 16 16 21 21 24 24 26 26 25 25 21 8 10 12 12 10 10 10 10 7 5 7 8 9 10 10 10 7 8 8 9 9 8 6 4 6 4 4 4 4 5 5 6 5 4 3 3 2 2 2 2 3 3 4 3 3 3 3 3 3 3 3
14 11 6 8 11 10 13 14 12 10 2 21 24 17 23 9 8 5 2 3 2 2 5 7 6 13 17 18 19 20 21 21 20 19 7 8 9 7 5 6 7 7 5 5 6 9 9 9 8 9 7 5 5 6 8 8 8 5 5 4 5 4 5 5 4 4 4 4 5 5 4 3 3 3 3 3 3 3 4 3 3 2 3 3 3 3
15 15 16 14 15 10 14 16 12 1 14 19 17 1 7 7 4 4 5 6 4 4 1 5 11 10 14 17 19 21 20 20 19 15 14 14 13 10 8 8 9 9 10 9 7 9 9 11 13 9 8 5 6 5 5 5 8 7 6 5 5 4 4 4 4 5 5 5 5 4 4 3 3 3 3 3 3 4 4 4 4 4 2 4 3 3
20 23 15 3 11 17 16 16 7 7 7 10 12 5 4 10 1 4 3 4 4 5 9 9 9 12 15 16 14 13 14 15 14 11 10 8 8 5 5 6 5 4 5 5 6 9 6 4 6 8 8 5 3 6 4 4 6 9 5 5 4 4 5 6 6 6 6 5 4 5 5 5 3 3 3 3 2 3 3 4 5 4 3 3 3 3
9 15 14 11 10 13 13 14 20 21 14 9 12 7 6 13 15 8 4 1 1 1 4 2 0 6 11 12 14 14 15 13 12 11 10 7 8 9 9 10 8 9 11 12 9 7 5 7 8 8 9 8 4 4 4 5 4 4 4 5 5 6 7 7 7 7 6 5 5 4 4 4 3 3 2 2 2 2 2 2 2 2 3 3 4 4
10 15 15 15 13 15 18 23 24 17 5 10 11 12 10 6 5 4 5 5 4 2 2 4 0 2 3 7 13 14 14 11 11 9 8 10 10 10 9 10 10 8 5 6 8 6 5 6 8 9 9 8 7 5 6 5 5 5 6 5 7 7 8 7 7 7 6 6 5 4 4 3 6 4 3 3 2 2 2 2 3 3 3 4 4 4
4 16 10 11 12 12 18 17 5 13 20 22 21 16 6 4 7 1 1 2 1 2 3 4 5 4 5 12 9 10 11 9 9 10 9 8 8 9 10 10 11 12 11 10 7 7 9 8 7 7 9 8 8 7 7 7 6 5 6 6 7 8 9 8 7 7 7 5 4 5 4 4 4 3 3 3 2 2 2 2 3 3 2 1 2 2
11 14 13 14 14 17 18 22 22 15 16 20 17 6 5 3 2 2 3 6 8 9 8 8 8 5 5 6 7 8 11 11 7 6 8 9 10 10 8 9 10 10 8 6 6 6 5 5 8 10 9 7 7 7 8 7 5 4 3 5 6 7 8 8 7 6 5 4 4 4 4 3 3 2 2 2 2 1 1 3 3 2 1 1 1 4
16 17 16 15 15 15 23 29 17 15 15 6 12 19 18 15 13 12 14 15 15 11 6 6 6 4 6 7 6 9 11 10 8 7 7 6 9 9 11 12 12 11 10 10 9 8 7 6 6 7 8 5 5 6 6 5 4 3 2 2 3 4 6 7 5 4 4 3 3 4 3 3 3 2 2 2 1 0 0 0 1 5 4 3 4 6
Wind_Direction
155 170 193 201 195 192 197 203 208 222 304 217 206 203 217 225 235 214 210 133 185 226 230 232 240 250 252 244 240 240 234 221 237 241 237 229 226 229 230 227 223 223 229 220 216 214 206 201 202 204 203 201 201 202 200 200 202 204 204 202 208 203 206 207 205 207 206 206 206 211 211 214 216 209 210 217 220 224 220 202 215 223 219 216 200 201
178 195 207 200 192 193 197 203 213 198 229 211 201 205 213 223 241 241 195 140 160 221 251 237 247 254 255 253 250 243 238 238 222 232 238 237 233 229 229 228 221 223 215 179 192 201 197 201 200 200 203 202 200 203 202 202 203 204 204 205 207 204 205 209 210 209 209 209 207 205 207 211 215 211 205 212 213 215 215 202 205 214 216 221 216 199
196 207 195 193 194 192 203 206 214 208 205 214 222 204 233 228 226 76 132 144 159 210 254 265 265 263 263 259 250 243 242 242 234 229 231 233 236 236 228 224 222 214 211 199 215 204 200 198 199 199 202 205 209 204 205 207 205 205 205 207 205 206 205 205 209 210 211 209 209 209 210 207 211 216 215 216 219 200 213 210 208 202 210 215 219 213
194 213 194 185 192 193 199 207 201 210 223 216 211 226 220 220 211 217 196 174 175 216 284 289 281 278 275 266 258 249 240 239 239 235 231 227 235 234 229 220 216 216 215 213 212 208 199 193 196 200 203 205 204 208 209 207 207 206 208 206 204 206 207 206 203 207 211 208 207 210 212 207 209 210 213 216 213 209 205 213 207 204 209 211 215 215
187 184 190 186 199 199 197 192 193 200 211 216 229 227 231 212 219 258 88 173 164 241 274 279 277 272 267 264 258 241 234 237 234 234 228 225 227 233 243 241 227 223 215 219 223 220 201 189 194 198 201 197 201 205 206 204 203 205 207 206 203 204 206 206 202 196 206 208 211 211 213 217 218 223 222 216 215 207 208 211 209 208 205 211 214 214
197 178 182 184 188 193 189 191 200 196 220 214 220 228 228 229 225 149 131 181 226 246 202 209 271 259 244 240 247 248 229 227 227 230 227 220 216 209 223 226 225 233 232 225 228 227 209 196 196 196 196 198 204 205 209 205 205 207 209 207 207 209 209 208 207 199 196 207 208 206 206 208 213 218 215 216 213 205 204 208 206 213 211 213 219 218
195 182 178 176 186 191 202 207 194 197 214 216 220 204 229 248 253 201 195 175 260 261 94 197 238 271 331 276 249 243 239 240 224 225 232 225 223 218 218 218 216 216 220 224 231 230 215 208 199 194 195 201 204 211 202 202 209 210 211 208 208 210 211 209 207 200 193 205 209 208 209 208 210 216 219 216 215 218 215 209 209 212 213 215 219 221
144 170 173 183 183 188 192 203 188 189 202 219 64 175 207 220 219 209 217 228 257 358 172 205 238 271 275 268 267 260 234 235 235 230 226 227 228 225 222 217 215 212 208 203 211 219 216 209 200 200 200 198 206 201 191 199 203 207 208 207 207 209 212 211 207 204 201 203 205 206 208 211 214 215 218 212 215 220 221 223 222 216 214 212 215 217
162 169 183 181 187 186 202 196 165 185 203 136 99 154 189 198 201 214 221 237 266 348 269 197 196 262 239 258 260 222 244 242 241 234 227 222 222 224 224 222 214 212 207 202 201 211 208 204 206 208 202 200 200 193 197 197 198 202 206 208 207 208 207 210 206 206 205 205 207 206 209 213 217 219 220 216 212 215 212 222 222 220 214 206 207 212
181 181 176 177 181 198 185 183 176 177 198 104 132 118 127 155 165 192 219 245 256 246 249 225 182 245 268 238 252 197 236 247 246 242 234 225 222 221 226 228 227 220 212 208 218 219 215 200 198 202 203 203 199 185 186 193 194 196 199 206 209 212 210 206 210 206 212 208 207 213 213 216 216 214 217 214 213 213 212 219 221 217 209 199 196 205
117 356 181 174 199 190 160 148 171 182 121 126 123 120 118 130 150 173 253 275 264 247 247 224 207 221 286 209 227 206 226 229 250 248 238 235 232 232 230 230 225 221 193 156 198 218 224 218 206 179 194 202 184 149 182 192 194 192 197 203 209 214 212 209 211 210 212 212 209 216 219 219 219 214 211 213 219 214 213 219 220 218 210 206 203 206
128 142 188 157 22 142 114 85 48 130 137 150 140 141 127 110 143 179 188 211 240 258 206 201 217 200 239 213 214 241 150 177 235 246 233 215 222 232 235 231 225 199 162 174 197 214 210 193 192 191 206 202 199 188 195 194 194 199 199 200 208 212 213 212 211 212 213 213 216 216 218 221 222 219 214 215 219 215 216 212 213 214 212 213 210 203
158 179 160 102 285 161 148 131 146 150 162 173 159 160 160 163 165 209 198 210 220 250 109 56 110 203 239 242 268 269 247 243 228 235 218 215 241 257 270 140 141 155 162 177 200 202 191 192 186 191 201 189 192 199 200 200 199 205 203 198 199 204 205 211 210 212 213 212 214 215 216 221 223 227 227 226 230 229 220 217 217 216 216 215 211 204
137 110 126 151 165 221 170 170 156 175 185 179 176 172 184 188 191 224 209 231 253 142 142 116 153 259 287 280 231 246 254 234 227 223 240 251 263 262 222 170 181 197 224 231 223 211 201 194 190 197 193 191 190 195 194 197 199 206 218 214 206 206 198 198 204 210 214 216 216 217 218 219 219 226 231 232 233 232 233 224 216 220 224 217 217 208
144 192 219 165 203 184 201 199 169 158 169 184 187 188 197 197 186 203 195 203 214 165 129 144 136 240 199 170 9 291 280 267 230 230 243 261 268 269 274 228 230 240 246 226 219 219 218 209 202 195 194 193 192 189 190 195 198 197 209 215 221 219 209 199 200 203 211 217 220 227 223 221 221 225 230 235 235 233 230 224 221 224 224 221 219 217
187 68 145 173 41 162 186 187 152 145 160 193 195 205 222 221 253 256 3 287 158 144 177 191 224 259 232 21 270 223 250 239 246 246 242 252 248 246 248 237 230 234 234 214 208 218 221 208 200 201 205 201 196 196 191 197 193 199 206 208 212 210 205 203 201 205 206 209 211 215 218 218 223 225 233 235 230 236 234 227 223 222 225 222 220 219
175 201 134 118 319 174 176 169 174 157 179 178 185 203 203 17 244 131 144 106 31 321 255 166 255 261 263 269 245 250 221 233 221 231 236 243 247 248 245 236 229 230 232 214 211 220 197 188 190 200 211 208 194 191 195 195 195 202 204 209 209 207 205 204 206 209 210 211 211 214 212 212 214 219 223 229 232 229 230 230 224 218 221 219 214 219
171 131 360 134 148 186 16 224 183 182 15 142 202 196 100 57 358 239 232 131 220 239 248 154 230 259 276 287 174 193 208 216 215 220 223 234 239 238 236 228 225 230 227 208 208 220 204 192 198 189 197 204 196 186 182 184 184 195 204 206 204 204 204 204 207 211 214 214 216 215 217 219 222 224 224 225 231 234 231 227 222 210 214 216 209 218
157 97 197 313 167 111 181 154 185 239 317 202 187 133 156 196 216 204 247 229 198 221 253 222 222 248 234 236 138 192 210 225 232 229 221 223 229 232 230 232 233 226 194 189 216 216 208 197 203 206 201 182 173 167 163 147 148 170 184 198 206 205 206 204 205 211 215 217 215 217 220 222 225 228 229 227 228 232 234 232 219 208 206 219 212 214
179 129 132 221 162 147 152 180 189 189 199 305 305 186 216 311 218 187 205 300 216 242 224 249 155 254 199 224 215 209 196 219 225 224 231 240 243 226 228 222 212 212 213 165 152 191 201 201 201 201 185 169 162 166 168 160 151 161 170 181 194 195 183 182 197 202 212 214 220 220 227 231 233 230 230 231 230 230 232 225 219 212 208 213 204 208
178 167 162 147 147 143 186 202 202 184 175 178 190 192 184 212 356 321 216 215 214 240 229 263 248 233 205 184 199 225 229 204 198 199 210 226 219 195 232 237 225 210 94 116 187 207 202 205 190 177 149 97 89 74 72 161 172 157 162 178 184 193 193 200 205 211 215 213 215 220 226 230 230 231 231 232 230 231 231 224 216 212 209 194 194 185
175 184 155 138 167 195 199 185 238 197 185 190 188 196 190 176 183 186 219 190 241 211 238 223 254 259 109 141 166 220 224 194 184 191 205 173 144 169 116 26 45 312 265 230 196 190 195 198 174 142 112 107 124 159 193 194 185 186 188 187 179 189 195 192 195 199 204 207 210 211 216 221 227 232 229 222 223 224 223 222 216 205 201 206 196 186
179 128 121 162 179 185 130 50 151 324 248 199 197 207 195 199 203 212 217 194 171 233 29 328 328 271 120 151 206 222 212 215 183 189 163 93 82 209 274 255 238 222 248 246 212 194 192 185 174 160 164 166 185 200 197 194 201 197 196 191 194 196 202 199 198 196 203 208 212 216 215 214 221 227 231 230 223 220 215 214 211 202 207 207 194 193
75 123 102 102 107 72 79 139 34 4 276 196 217 219 200 203 201 205 232 119 187 157 215 238 244 256 129 211 217 196 123 85 81 89 99 97 168 236 233 242 248 238 228 218 217 210 182 173 146 173 197 195 189 213 216 210 205 202 198 198 203 220 223 220 228 223 217 218 222 223 222 222 228 235 242 241 236 228 217 212 209 200 211 202 190 193
172 188 139 132 125 166 163 122 195 200 231 220 206 205 212 208 204 216 72 89 229 197 200 192 241 260 128 301 251 221 144 151 138 152 173 196 199 200 203 213 208 222 232 222 215 210 182 176 193 211 211 211 204 203 208 207 206 203 202 196 209 219 219 221 226 231 235 238 236 235 235 235 233 234 234 243 248 244 230 222 210 201 204 193 194 194
12 154 159 163 167 172 180 190 192 189 203 202 210 190 205 205 191 133 199 198 235 193 183 212 242 243 101 262 240 204 161 221 225 182 184 206 209 206 209 215 226 187 189 198 198 164 205 210 204 208 211 212 213 202 200 201 204 208 205 195 203 208 205 210 214 220 226 228 230 232 231 233 232 230 232 233 235 234 233 224 212 206 208 192 195 192
157 179 199 174 180 193 192 121 70 66 88 180 186 197 194 203 183 179 191 215 221 212 195 221 234 265 198 213 218 212 211 209 207 197 206 212 218 215 212 228 266 198 128 170 177 137 85 232 226 220 215 210 204 196 198 201 203 206 201 191 192 204 208 207 206 212 215 219 222 228 229 230 230 222 221 221 226 226 220 216 216 205 208 203 200 189
107 197 207 195 201 192 166 151 133 148 156 180 169 193 186 192 186 190 198 220 194 77 236 230 223 237 218 194 202 206 206 204 213 207 200 201 201 201 192 179 197 223 194 158 220 236 231 234 222 207 202 197 197 190 199 207 211 205 198 193 184 197 206 208 208 209 215 217 220 226 232 233 230 226 225 243 234 219 216 207 201 216 209 172 196 193
184 198 199 208 208 178 124 153 145 153 171 173 176 178 172 178 193 201 218 229 151 212 233 236 188 226 231 200 197 197 192 195 201 202 202 145 105 121 127 187 198 212 218 207 219 229 224 221 217 203 193 194 184 200 204 201 207 207 204 199 190 198 210 210 209 210 213 214 217 215 212 210 185 162 108 105 120 154 165 171 180 162 157 175 194 195
167 222 183 195 212 207 188 177 169 168 168 167 176 183 185 188 199 207 225 223 211 227 234 234 174 218 230 201 204 199 184 191 158 89 84 119 181 167 184 200 203 201 202 211 217 220 219 224 211 192 184 185 196 199 200 203 204 201 203 201 197 200 205 202 208 208 211 216 218 209 203 191 164 163 161 164 172 165 148 149 142 140 141 155 139 120
194 206 175 178 207 215 208 237 189 187 165 184 184 185 184 187 201 210 220 225 217 233 240 241 248 256 246 211 211 202 170 74 93 157 177 193 191 189 191 197 206 203 200 202 213 214 215 209 200 199 198 202 193 197 203 208 204 197 205 202 192 195 196 199 209 211 213 216 209 204 193 186 178 166 184 178 160 148 156 150 144 144 142 141 150 156
206 198 170 168 199 217 192 185 216 221 187 181 185 184 184 188 200 208 214 215 199 221 233 236 245 249 250 155 200 195 194 151 175 180 195 200 210 201 188 197 208 214 208 205 209 217 215 210 210 209 216 214 204 189 193 203 203 188 208 195 195 184 185 202 209 213 216 212 196 202 197 191 173 181 187 170 176 169 160 147 146 152 151 146 155 163
195 183 177 170 197 217 185 157 142 102 83 197 202 194 193 196 201 207 223 217 206 211 221 219 229 234 93 151 187 192 196 183 208 198 197 203 188 189 191 201 212 221 221 213 209 212 217 218 216 213 214 212 189 182 192 180 188 211 206 190 189 166 178 202 210 216 218 201 189 198 197 185 187 195 190 192 172 154 143 148 149 152 159 174 165 146
179 193 180 166 203 186 140 140 135 161 204 213 213 203 187 190 193 201 211 212 214 208 224 221 234 244 195 196 191 198 193 191 205 210 208 197 179 190 206 204 212 220 225 223 217 216 219 218 210 212 216 212 177 181 164 170 199 212 192 171 158 162 181 200 213 216 211 192 203 200 199 193 197 199 195 168 144 145 157 163 174 167 156 136 137 160
179 184 191 154 199 167 149 131 171 214 219 231 41 132 189 199 197 209 220 215 214 214 224 233 232 228 186 184 196 201 209 206 203 199 171 191 216 229 223 209 214 220 226 225 221 221 220 209 200 203 205 204 182 150 125 160 199 161 137 170 163 175 173 202 213 216 205 197 199 193 192 197 203 201 176 161 154 150 163 172 155 152 160 163 171 175
177 177 173 190 128 64 169 178 202 224 226 224 130 158 184 201 215 214 237 234 223 215 215 231 236 230 222 203 198 206 211 215 209 213 212 208 219 224 226 220 222 224 227 226 222 225 216 206 205 199 193 156 149 155 169 189 166 173 194 169 179 176 181 198 216 216 200 201 196 190 185 186 195 199 177 163 161 163 169 169 176 172 160 156 168 169
184 180 182 177 160 181 189 189 214 51 42 153 164 201 182 199 202 196 219 239 233 233 228 240 244 234 227 218 182 100 98 81 232 230 209 213 220 225 226 230 231 230 233 233 223 225 223 200 174 177 164 158 168 165 183 166 150 172 161 170 180 172 177 198 220 225 216 212 191 188 181 182 187 192 180 166 166 182 181 177 174 163 152 155 172 176
211 194 175 172 195 184 171 194 206 232 237 207 218 219 191 169 157 191 214 262 204 205 213 221 227 224 214 196 144 139 115 140 228 236 205 208 221 228 231 235 237 241 246 246 230 220 194 156 145 140 161 163 175 181 159 147 152 155 163 165 157 167 178 195 225 225 221 216 198 186 176 181 184 184 177 168 185 189 197 189 170 169 172 182 178 188
275 339 233 203 160 179 184 197 201 211 228 221 225 201 161 181 141 111 172 253 253 211 218 215 230 223 206 186 157 142 168 220 236 238 174 197 220 226 231 235 234 236 238 225 209 194 180 169 161 159 157 168 184 177 150 141 147 153 164 163 160 172 182 204 205 206 203 197 184 180 179 182 185 185 177 183 190 183 182 183 183 167 160 181 176 192
225 227 187 220 203 192 176 193 210 206 230 235 225 159 173 152 143 115 196 241 252 235 208 205 217 219 208 202 182 186 196 221 233 243 207 197 214 222 226 231 227 227 230 204 197 188 173 150 139 157 174 188 195 148 142 142 149 169 172 174 170 183 198 200 183 179 187 191 189 184 186 179 178 180 176 187 186 180 183 169 151 151 170 171 169 172
204 211 212 213 197 204 204 221 231 242 242 236 143 159 154 136 143 182 205 227 240 107 182 207 217 215 202 191 180 206 209 219 233 243 176 193 211 221 226 224 220 213 204 195 201 171 163 175 180 186 193 192 157 143 147 152 161 180 184 172 182 205 187 158 146 157 167 186 191 192 187 173 178 184 184 179 181 174 162 165 165 158 169 170 176 165
196 198 227 204 210 195 205 211 228 263 246 132 143 137 136 143 187 199 217 220 78 156 165 189 201 201 189 191 195 208 213 220 232 238 193 190 193 215 220 220 204 189 193 205 188 179 186 180 190 179 149 150 154 153 158 161 173 181 172 177 187 153 140 133 142 148 157 164 178 182 179 166 130 143 161 146 140 144 154 133 123 150 172 179 167 171
181 187 182 195 191 235 207 218 231 245 210 155 144 146 156 181 211 219 64 37 70 147 163 171 187 188 184 195 198 203 215 220 223 232 224 195 202 208 212 189 183 190 196 189 188 194 177 177 183 182 170 152 158 155 161 160 166 170 156 159 132 123 125 135 138 143 148 148 148 143 140 130 121 131 128 141 148 151 157 140 141 150 161 157 151 172
164 195 172 208 188 197 203 203 213 219 319 142 154 188 195 191 43 66 77 47 328 105 158 170 163 194 185 199 203 211 220 226 230 235 208 192 205 213 189 184 189 194 191 198 195 179 177 185 178 170 150 128 135 139 152 156 154 152 146 145 121 121 124 132 132 124 118 114 113 117 123 122 126 132 142 151 151 152 146 146 151 159 179 171 184 188
176 199 179 193 182 197 195 213 214 141 162 176 186 75 183 212 57 39 200 207 142 235 143 167 184 188 190 195 204 208 216 222 226 214 198 204 202 199 184 185 183 185 187 182 178 171 179 184 179 158 127 116 125 122 130 139 140 138 148 142 129 133 129 118 110 116 115 115 118 118 119 134 154 157 153 148 156 161 158 156 159 181 183 179 188 193
194 206 202 242 201 208 234 226 165 219 252 202 199 209 165 213 134 88 57 148 211 178 180 174 197 192 197 202 207 222 223 226 226 220 211 198 188 171 159 148 153 142 139 134 126 161 182 148 144 150 150 126 116 113 122 127 138 142 155 129 131 129 126 126 125 122 119 118 117 116 123 128 126 139 144 149 172 180 174 171 181 186 179 181 193 195
216 193 202 215 184 187 237 220 225 222 207 222 209 210 216 205 194 170 142 120 46 28 223 286 321 206 196 191 206 212 220 223 222 219 209 188 175 174 171 166 164 170 170 175 164 148 153 153 157 165 153 125 122 114 114 112 108 112 116 125 125 126 130 129 130 124 122 121 120 115 129 140 146 141 138 163 174 188 171 172 181 193 186 184 198 201
219 184 200 212 197 199 226 221 221 226 183 210 227 221 228 264 255 176 160 139 141 145 216 213 53 254 221 220 209 209 221 221 217 217 191 191 189 179 170 165 158 141 137 116 132 160 152 171 171 160 150 133 138 133 133 132 126 118 120 126 132 137 134 136 139 140 137 137 135 139 144 150 119 129 148 162 180 184 186 183 193 211 211 198 202 209
151 158 208 189 223 234 253 259 218 211 221 220 213 211 200 183 217 227 112 165 157 216 191 177 191 215 196 216 211 215 221 224 212 208 202 191 183 182 186 171 166 161 147 147 164 173 177 173 161 154 143 139 144 142 143 145 144 145 142 143 145 144 143 141 137 130 131 137 134 132 145 144 145 162 147 150 171 200 200 196 196 212 239 218 229 239
142 193 186 192 211 220 223 226 210 211 220 227 217 173 77 85 123 222 237 241 234 235 221 208 217 221 232 233 214 208 216 221 209 192 200 194 191 187 175 160 155 149 144 145 145 167 161 163 157 153 148 139 145 145 144 146 142 126 128 138 147 149 142 138 128 125 125 132 131 120 136 131 133 139 133 140 162 180 231 48 47 358 335 306 351 291
199 187 185 200 200 220 226 233 214 214 237 225 180 190 185 186 192 203 214 220 227 227 222 213 214 229 236 236 226 211 211 209 198 176 185 183 191 182 179 166 160 156 158 155 150 162 165 160 155 145 139 131 127 130 129 111 93 87 77 88 124 136 126 129 125 119 120 130 131 131 131 126 126 132 133 121 121 118 358 308 173 198 249 267 306 339